Location: Cassagne
(43.1218°N, 0.9901°E)
Time: 06:19:21
(UTC+00:00)

Cosmos 1943 Rocket - Pass Details

Date: 17 February 2020
Orbit: 814 x 842 km, 71.0° (Epoch: 28 March)

Event Time Altitude Azimuth Distance (km) Brightness Sun altitude
Exits shadow 04:31:30 - 343° (NNW) 2,653 4.7 -26.2°
Reaches altitude 10° 04:32:09 10° 346° (NNW) 2,413 4.5 -26.1°
Maximum altitude 04:37:29 47° 60° (ENE) 1,064 3.0 -25.1°
Drops below altitude 10° 04:42:46 10° 134° (SE) 2,398 5.0 -24.2°
Sets 04:45:16 0° 140° (SE) 3,328 5.8 -23.7°
